Starlink 30364

operational
NORAD ID: 57741 Int'l Des: 2023-131 Owner: SPXS Country: US Constellation: starlink
LEOCIRCULAR

Über Starlink 30364

Beschreibung wird geladen...

Live-Position

3D-Globus wird geladen...

Nächste Überflüge

Höhenverlauf

Altitude vs Time

uPlot chart will show altitude changes over time

Zweizeiliger Elementsatz

1 57741U 23131K 25258.11745057 -.00002484 00000-0 -16899-3 0 9992
2 57741 43.0044 45.7930 0001390 266.6730 93.3953 15.02516382113518
Epoch: 15. Sept. 2025 • Age: 15 hours

Aktueller Status

Höhe 560.4 km
Geschwindigkeit 7.59 km/s
Subsatellitenpunkt 29.65°N, 175.8°W
Startdatum 1. Sept. 2023
Alter 2 years
Typ internet

Technische Details

Klassifizierung Payload
Masse 730.00 kg
Trockenmasse 700.00 kg
Gesamtmasse 730.00 kg
Länge 0.30 m
Durchmesser 4.10 m
Spannweite 29.00 m
Form Box + pan
Hersteller SPXS
Bus-Typ Starlink V2M
Phasenstatus In Orbit
Besitzer/Staat SPXS/US

Große Konstellationen

Loading constellations...